Simultaneous Nadir Overpasses (SNOs) Predictions

Prediction of SNOs between GOES-15 and METOP-A Satellite Orbit:

Table of predicted SNOs for the next 14.0 days since TLE Epoch: 12/16/2011
Index Date Time (GOES-15) GOES-15 Lat,Lon METOP-A Lat,Lon Distance(km) Time Diff (sec)
1 12/16/2011 06:29:54 0.10,-135.97 0.23,-135.53 50.80 80
2 12/17/2011 18:51:33 -0.09,-137.27 0.55,-140.15 328.37 80
3 12/18/2011 18:28:20 -0.10,-137.97 -0.73,-135.21 314.69 80
4 12/20/2011 06:50:08 0.09,-138.81 -0.14,-139.86 118.87 80
5 12/22/2011 18:46:00 -0.09,-140.79 -0.36,-139.56 140.62 80
6 12/24/2011 07:07:52 0.08,-141.62 -0.50,-144.22 296.28 80
7 12/25/2011 06:44:43 0.08,-142.31 0.78,-139.29 344.38 80
8 12/26/2011 19:06:30 -0.07,-143.60 0.01,-143.95 40.15 80
9 12/28/2011 07:25:46 0.06,-144.42 -0.86,-148.63 479.63 80
10 12/29/2011 07:02:39 0.06,-145.10 0.40,-143.71 159.58 80




NCC Satellite Simultaneous Nadir Overpasses (SNOs) Prediction Service
